Stations météo

réclame
Mon MeteoGroup
Lanveoc Poulmic, France (7109): Température de l'air & dewpoint: 14.03.2019 11:00:00 - 20.03.2019 11:00:00 (CET)Lanveoc Poulmic, France (7109): Température de l'air 5cm: 14.03.2019 11:00:00 - 20.03.2019 11:00:00 (CET)Lanveoc Poulmic, France (7109): Vitesse du vent & gusts: 14.03.2019 11:00:00 - 20.03.2019 11:00:00 (CET)Lanveoc Poulmic, France (7109): Direction du vent: 14.03.2019 11:00:00 - 20.03.2019 11:00:00 (CET)Lanveoc Poulmic, France (7109): reduced air pressure: 14.03.2019 11:00:00 - 20.03.2019 11:00:00 (CET)Lanveoc Poulmic, France (7109): visibility: 14.03.2019 11:00:00 - 20.03.2019 11:00:00 (CET)Lanveoc Poulmic, France (7109): Quantités de précipitations: 14.03.2019 11:00:00 - 20.03.2019 11:00:00 (CET)
Date & Time tt [°C] td [°C] tt 5cm [°C] ff [km/h] ff [knt] fx [km/h] fx [knt] dd ppp [hPa] vv [km] rr [mm]
20.03.2019 11:00:00 - - - - - - - - - - -
20.03.2019 10:00:00 10,0 9,5 8,1 10 6 16 9 S 1035,2 1,5 0,0
20.03.2019 09:00:00 9,5 8,9 8,2 8 4 11 6 S 1034,9 1,1 0,0
20.03.2019 08:00:00 8,8 8,2 7,9 6 3 9 5 S 1034,1 0,7 0,0
20.03.2019 07:00:00 8,7 8,1 7,4 6 4 11 6 SSW 1033,5 4,1 0,0
20.03.2019 06:00:00 8,2 7,6 6,8 8 4 14 7 S 1033,0 4,2 0,0
20.03.2019 05:00:00 8,0 7,2 6,7 9 5 14 8 SSW 1033,0 9 0,0
20.03.2019 04:00:00 8,1 7,5 7,1 7 4 9 5 SSW 1033,2 3,1 0,0
20.03.2019 03:00:00 7,7 7,1 6,2 7 4 11 6 S 1033,2 1,5 0,2
20.03.2019 02:00:00 7,8 7,0 6,5 7 4 10 6 S 1033,7 7 0,0
20.03.2019 01:00:00 7,4 6,7 2,9 9 5 11 6 S 1033,5 27 0,0
20.03.2019 00:00:00 7,3 6,6 1,7 7 4 11 6 SSW 1033,6 32 0,0
19.03.2019 23:00:00 7,0 6,1 3,1 8 5 35 19 W 1033,5 25 0,0
19.03.2019 22:00:00 6,0 4,6 4,1 6 3 16 9 NW 1033,6 26 0,0
19.03.2019 21:00:00 7,9 6,0 7,0 9 5 36 20 WNW 1032,6 32 0,0
19.03.2019 20:00:00 8,7 6,3 6,6 12 7 15 8 W 1032,2 44 0,0
19.03.2019 19:00:00 10,4 6,3 9,4 9 5 13 7 W 1031,3 52 0,0
19.03.2019 18:00:00 11,5 6,6 10,1 5 3 21 11 NW 1030,9 43 0,0
19.03.2019 17:00:00 11,2 7,3 9,0 16 9 22 12 WNW 1030,8 51 0,0
19.03.2019 16:00:00 10,8 6,9 8,7 14 8 20 11 W 1030,7 51 0,0
19.03.2019 15:00:00 10,7 7,4 8,3 13 7 20 11 W 1030,8 42 0,0
19.03.2019 14:00:00 11,1 7,4 7,9 11 6 16 8 W 1030,8 48 0,0
19.03.2019 13:00:00 10,6 8,5 8,1 8 5 15 8 SSW 1030,9 20 0,0
19.03.2019 12:00:00 11,2 9,5 8,3 4 2 10 6 SW 1030,7 11 0,0
19.03.2019 11:00:00 9,2 8,1 7,5 0 0 11 6 N 1030,4 24 0,2
19.03.2019 10:00:00 8,9 8,0 8,3 7 4 11 6 WSW 1030,0 4,2 0,0
19.03.2019 09:00:00 8,3 7,5 7,4 5 3 7 4 SW 1029,6 32 0,0
19.03.2019 08:00:00 7,6 6,8 6,1 5 3 6 3 WSW 1029,2 20 0,0
19.03.2019 07:00:00 7,2 6,5 6,4 3 2 9 5 SW 1028,6 8 0,0
19.03.2019 06:00:00 7,6 6,8 6,3 9 5 10 5 W 1028,4 15 0,0
19.03.2019 05:00:00 7,2 6,5 5,7 0 0 3 2 N 1028,4 16 0,0
19.03.2019 04:00:00 7,5 6,8 6,2 3 2 6 3 E 1028,2 13 0,0
19.03.2019 03:00:00 6,9 6,0 4,4 3 2 9 5 N 1028,3 15 0,0
19.03.2019 02:00:00 7,2 6,1 5,7 4 2 16 9 NW 1028,1 23 0,0
19.03.2019 01:00:00 8,0 7,1 6,0 14 8 21 11 NW 1028,0 6 0,0
19.03.2019 00:00:00 6,9 5,8 5,8 10 6 15 8 WNW 1028,1 36 0,0
18.03.2019 23:00:00 7,3 6,2 5,9 10 5 16 9 NW 1028,1 36 0,0
18.03.2019 22:00:00 7,7 6,2 6,2 13 7 25 13 NW 1027,7 39 0,0
18.03.2019 21:00:00 7,9 6,7 7,2 9 5 35 19 NW 1027,5 28 0,2
18.03.2019 20:00:00 8,3 6,9 7,0 12 6 22 12 NW 1027,1 23 0,4
18.03.2019 19:00:00 8,2 6,8 7,3 16 8 28 15 NW 1026,8 7 0,4
18.03.2019 18:00:00 8,6 6,9 7,6 11 6 26 14 WNW 1026,6 17 0,4
18.03.2019 17:00:00 8,5 6,1 7,6 16 9 27 15 W 1026,5 20 0,2
18.03.2019 16:00:00 8,5 5,8 7,2 18 10 31 17 WNW 1026,7 21 0,0
18.03.2019 15:00:00 8,6 6,4 7,9 16 9 27 14 WNW 1027,0 34 0,4
18.03.2019 14:00:00 8,2 6,3 7,7 14 7 32 17 NW 1027,4 10 0,2
18.03.2019 13:00:00 8,9 4,1 8,2 19 11 35 19 NW 1027,4 34 0,0
18.03.2019 12:00:00 9,7 4,9 5,8 16 9 31 17 WNW 1027,1 41 0,2
18.03.2019 11:00:00 10,1 5,7 7,7 17 9 40 21 W 1026,9 20 0,2
18.03.2019 10:00:00 9,5 5,1 8,5 18 10 29 15 WNW 1026,5 20 0,0
18.03.2019 09:00:00 8,6 4,8 7,4 15 8 21 11 WNW 1025,9 33 0,0
18.03.2019 08:00:00 7,9 4,3 6,7 13 7 21 11 WNW 1025,6 27 0,0
18.03.2019 07:00:00 7,4 4,2 6,0 14 7 19 11 WNW 1025,5 20 0,0
18.03.2019 06:00:00 7,1 3,9 5,9 13 7 20 11 WNW 1025,0 20 0,0
18.03.2019 05:00:00 7,2 4,2 6,0 14 8 26 14 WNW 1024,6 19 0,0
18.03.2019 04:00:00 7,4 4,0 6,0 16 9 27 15 WNW 1024,5 20 0,0
18.03.2019 03:00:00 8,0 4,2 6,7 17 9 29 15 WNW 1024,5 19 0,0
18.03.2019 02:00:00 7,6 4,0 6,2 19 10 32 17 WNW 1024,1 19 0,0
18.03.2019 01:00:00 7,6 4,2 6,5 19 10 33 18 WNW 1023,9 17 0,0
18.03.2019 00:00:00 7,5 3,9 6,3 20 11 35 19 WNW 1023,3 18 0,0
17.03.2019 23:00:00 7,8 3,6 6,4 23 12 42 23 NW 1023,0 20 0,0
17.03.2019 22:00:00 8,0 3,5 6,6 27 14 45 25 NW 1022,5 20 0,0
17.03.2019 21:00:00 7,8 2,9 6,4 24 13 46 25 NW 1022,0 28 0,0
17.03.2019 20:00:00 7,8 2,7 6,5 23 13 45 25 NW 1020,9 30 0,0
17.03.2019 19:00:00 8,6 2,4 7,6 25 14 51 27 NW 1020,1 32 0,0
17.03.2019 18:00:00 9,2 2,3 7,6 30 16 50 27 NW 1019,1 26 0,0
17.03.2019 17:00:00 8,2 3,8 7,5 31 17 64 34 NW 1018,2 20 0,0
17.03.2019 16:00:00 9,8 2,6 8,8 36 20 62 34 NW 1017,1 14 0,0
17.03.2019 15:00:00 9,3 3,7 6,0 38 20 61 33 WNW 1016,6 10 0,2
17.03.2019 14:00:00 9,9 4,5 7,2 40 21 62 34 WNW 1015,9 26 0,0
17.03.2019 13:00:00 9,2 4,4 6,0 42 23 69 37 W 1015,6 30 0,0
17.03.2019 12:00:00 7,1 3,7 5,2 25 13 72 39 W 1015,6 6 0,8
17.03.2019 11:00:00 9,4 2,0 7,2 35 19 51 28 W 1014,8 20 0,0
17.03.2019 10:00:00 7,6 2,3 4,6 23 12 41 22 WNW 1014,3 26 0,0
17.03.2019 09:00:00 5,4 1,9 3,7 29 15 60 33 NW 1013,8 50 0,8
17.03.2019 08:00:00 6,0 1,5 4,2 32 18 53 29 WNW 1012,5 23 0,0
17.03.2019 07:00:00 5,3 2,6 4,3 21 11 49 27 NW 1011,5 34 0,0
17.03.2019 06:00:00 5,3 2,8 3,9 16 9 52 28 W 1010,5 41 0,2
17.03.2019 05:00:00 6,1 3,1 4,7 27 15 48 26 NW 1009,7 45 0,0
17.03.2019 04:00:00 5,8 3,5 4,3 17 9 58 31 W 1008,9 30 0,0
17.03.2019 03:00:00 6,7 2,9 5,4 32 18 53 29 WNW 1008,5 39 0,0
17.03.2019 02:00:00 6,4 3,7 5,6 31 17 55 30 NW 1008,0 6 0,4
17.03.2019 01:00:00 7,9 5,2 6,5 24 13 41 22 WNW 1007,4 33 0,0
17.03.2019 00:00:00 8,0 6,6 7,2 25 13 49 26 WNW 1006,5 17 0,6
16.03.2019 23:00:00 8,3 6,8 7,6 28 15 44 24 W 1005,7 8 2,0
16.03.2019 22:00:00 8,5 7,1 7,1 28 15 69 37 W 1005,5 3,4 0,8
16.03.2019 21:00:00 10,1 9,0 8,4 41 22 67 36 SSW 1005,0 3,7 0,2
16.03.2019 20:00:00 10,3 8,4 8,7 39 21 64 35 SW 1005,7 3,9 0,0
16.03.2019 19:00:00 10,7 7,4 9,5 42 23 78 42 SSW 1006,1 16 0,0
16.03.2019 18:00:00 10,5 7,2 8,7 42 23 72 39 SSW 1007,1 12 0,0
16.03.2019 17:00:00 10,4 7,1 8,8 39 21 62 33 SSW 1008,3 14 0,0
16.03.2019 16:00:00 10,3 7,0 8,9 37 20 62 33 SW 1009,7 15 0,0
16.03.2019 15:00:00 10,8 6,3 9,4 37 20 61 33 SSW 1010,4 17 0,0
16.03.2019 14:00:00 10,8 6,3 9,5 38 21 69 37 SW 1011,7 18 0,0
16.03.2019 13:00:00 10,9 6,2 10,0 39 21 67 36 SSW 1012,4 17 0,0
16.03.2019 12:00:00 11,2 6,9 10,5 37 20 64 34 SW 1013,3 18 0,0
16.03.2019 11:00:00 11,0 5,3 8,8 40 22 67 36 SSW 1013,9 16 0,0
16.03.2019 10:00:00 10,7 6,4 9,0 36 19 55 30 SSW 1014,5 19 0,0
16.03.2019 09:00:00 10,4 6,3 8,3 24 13 53 28 SSW 1014,9 10 0,0
16.03.2019 08:00:00 10,3 5,5 7,7 25 13 52 28 SW 1015,7 20 0,0
16.03.2019 07:00:00 10,4 6,5 8,2 29 16 54 29 SW 1016,3 20 0,0
16.03.2019 06:00:00 10,5 5,9 8,5 31 17 50 27 SW 1016,9 31 0,0
16.03.2019 05:00:00 10,5 6,4 8,4 27 15 44 24 SW 1017,2 20 0,0
16.03.2019 04:00:00 10,3 7,0 8,2 27 15 50 27 SW 1017,9 20 0,0
16.03.2019 03:00:00 10,6 6,5 8,6 32 17 50 27 SW 1018,7 43 0,0
16.03.2019 02:00:00 10,3 8,4 8,3 24 13 51 28 SW 1019,4 20 0,0
16.03.2019 01:00:00 10,6 8,5 9,1 23 13 40 21 SW 1020,1 19 0,0
16.03.2019 00:00:00 10,7 8,3 8,6 23 13 40 22 SW 1020,4 19 0,0
15.03.2019 23:00:00 10,7 8,8 8,8 21 11 37 20 SW 1020,7 13 0,0
15.03.2019 22:00:00 10,7 8,5 8,9 18 10 39 21 WSW 1021,0 16 0,0
15.03.2019 21:00:00 10,6 8,5 8,5 20 11 34 18 WSW 1021,3 13 0,0
15.03.2019 20:00:00 10,6 8,9 8,4 19 11 41 22 WSW 1021,2 9 0,0
15.03.2019 19:00:00 11,0 8,4 9,2 24 13 44 24 WSW 1021,2 14 0,0
15.03.2019 18:00:00 11,1 8,5 10,1 25 13 55 30 W 1021,1 12 0,0
15.03.2019 17:00:00 11,1 9,0 9,7 25 14 46 25 W 1021,4 10 0,0
15.03.2019 16:00:00 11,1 9,0 9,4 30 16 52 28 WSW 1021,7 9 0,0
15.03.2019 15:00:00 11,5 8,7 10,6 32 17 56 30 W 1021,9 16 0,0
15.03.2019 14:00:00 12,2 9,2 10,3 34 19 59 32 WSW 1021,8 16 0,0
15.03.2019 13:00:00 11,6 9,2 9,8 31 17 51 28 WSW 1022,2 14 0,0
15.03.2019 12:00:00 11,5 9,2 10,0 29 16 54 29 W 1022,1 13 0,0
15.03.2019 11:00:00 11,3 9,2 9,3 30 16 50 27 W 1022,0 14 0,0
15.03.2019 10:00:00 11,3 9,4 8,5 34 19 58 31 WSW 1021,6 13 0,0
15.03.2019 09:00:00 10,9 9,3 8,8 29 16 54 29 W 1021,5 10 0,0
15.03.2019 08:00:00 10,9 9,5 8,2 31 17 52 28 W 1021,2 15 0,0
15.03.2019 07:00:00 10,6 9,7 8,0 29 16 58 31 W 1021,2 12 0,0
15.03.2019 06:00:00 10,6 9,7 7,7 30 16 52 28 W 1021,2 17 0,0
15.03.2019 05:00:00 10,7 9,9 8,2 31 17 54 29 W 1021,1 6 0,0
15.03.2019 04:00:00 10,7 9,8 8,1 33 18 54 29 W 1021,1 3,5 0,0
15.03.2019 03:00:00 10,8 9,7 8,3 28 15 59 32 W 1021,5 6 0,0
15.03.2019 02:00:00 10,9 9,5 8,6 32 17 53 29 WSW 1021,6 7 0,0
15.03.2019 01:00:00 11,0 9,6 8,0 31 17 51 28 WSW 1021,4 10 0,0
15.03.2019 00:00:00 10,9 9,7 8,2 29 16 46 25 W 1021,8 8 0,0
14.03.2019 23:00:00 10,7 9,8 8,6 28 15 52 28 W 1021,6 8 0,2
14.03.2019 22:00:00 10,7 9,9 8,8 31 17 59 32 W 1021,6 3,4 0,0
14.03.2019 21:00:00 10,8 10,0 8,5 32 17 58 32 W 1021,2 2,4 0,0
14.03.2019 20:00:00 10,9 10,1 8,8 36 20 56 30 W 1020,9 5 0,2
14.03.2019 19:00:00 10,9 10,0 8,8 35 19 58 31 W 1020,2 3,3 0,0
14.03.2019 18:00:00 10,9 10,1 8,9 36 19 65 35 W 1019,8 2,6 0,0
14.03.2019 17:00:00 11,0 10,2 8,9 40 22 64 35 W 1019,7 2,3 0,0
14.03.2019 16:00:00 10,9 10,0 9,6 42 23 62 33 W 1019,7 2,0 0,0
14.03.2019 15:00:00 10,9 9,8 8,4 35 19 60 32 W 1020,1 1,6 0,0
14.03.2019 14:00:00 11,2 9,1 9,6 42 23 65 35 W 1020,4 2,8 0,0
14.03.2019 13:00:00 11,4 8,3 9,7 39 21 72 39 W 1020,4 13 0,0
14.03.2019 12:00:00 11,4 8,1 10,0 43 23 74 40 W 1020,5 13 0,0
14.03.2019 11:00:00 11,2 7,7 9,8 43 23 70 38 W 1020,5 13 0,0

tt = Température de l'air
td = dewpoint
tt 5cm = Température de l'air 5cm
ff = Vitesse du vent
fx = gusts
dd = Direction du vent
ppp = reduced air pressure
vv = visibility
rr = Quantités de précipitations

stations d'obs. à proximité